Station ALXN6 - 8311062 - Alexandria Bay, NY Image indicating link to RSS feed of recent meteorological observations for station ALXN6


Conditions at ALXN6 as of
(10:30 pm EDT on 06/12/2024)
0230 GMT on 06/13/2024:
     

Click on the graph icon in the table below to see a time series plot of the last five days of that observation.

5-day plot - Atmospheric Pressure Atmospheric Pressure (PRES):29.97 in
5-day plot - Water Temperature Water Temperature (WTMP): 63.3 °F
NOS Water Level Observation Network Water Level
Previous observations
TIME
(EDT)
5-day plot - Wind Direction
WDIR
 
5-day plot - Wind Speed
WSPD
kts
5-day plot - Wind Gust
GST
kts
5-day plot - Wave Height
WVHT
ft
5-day plot - Dominant Wave Period
DPD
sec
5-day plot - Average Wave Period
APD
sec
5-day plot - Mean Wave Direction
MWD
 
5-day plot - Atmospheric Pressure
PRES
in
5-day plot - Pressure Tendency
PTDY
in
5-day plot - Air Temperature
ATMP
°F
5-day plot - Water Temperature
WTMP
°F
5-day plot - Dew Point
DEWP
°F
5-day plot - Salinity
SAL
psu
5-day plot - Visibility
VIS
nmi
5-day plot - Tide (above MLLW)
TIDE
ft
2024-06-12 10:24 pm-------29.97-- 63.3----
2024-06-12 10:18 pm-------29.97-------
2024-06-12 10:12 pm-------29.97-------
2024-06-12 10:06 pm-------29.97-------
2024-06-12 10:00 pm-------29.98+0.00------
2024-06-12 09:54 pm-------29.97-------
2024-06-12 09:48 pm-------29.97-- 63.3----
2024-06-12 09:42 pm-------29.96-- 63.3----
2024-06-12 09:36 pm-------29.96-- 63.3----
2024-06-12 09:30 pm-------29.97-- 63.3----
2024-06-12 09:24 pm-------29.97-- 63.3----
2024-06-12 09:18 pm-------29.97-- 63.3----
2024-06-12 09:12 pm-------29.96-- 63.3----
2024-06-12 09:06 pm-------29.96-- 63.3----
2024-06-12 09:00 pm---------- 63.3----
2024-06-12 08:54 pm---------- 63.3----
2024-06-12 08:48 pm-------29.97-- 63.3----
2024-06-12 08:42 pm-------29.97-- 63.3----
2024-06-12 08:36 pm-------29.97-- 63.3----
2024-06-12 08:30 pm-------29.97-- 63.3----
2024-06-12 08:24 pm-------29.97-- 63.3----
2024-06-12 08:18 pm-------29.98-- 63.3----
2024-06-12 08:12 pm-------29.98-- 63.3----
2024-06-12 08:06 pm-------29.98-- 63.3----
2024-06-12 08:00 pm-------29.98-0.01- 63.3----
2024-06-12 07:54 pm-------29.98-- 63.3----
2024-06-12 07:48 pm-------29.98-- 63.3----
2024-06-12 07:42 pm-------29.98-- 63.3----
2024-06-12 07:36 pm-------29.97-- 63.3----
2024-06-12 07:30 pm-------29.97-- 63.3----
2024-06-12 07:24 pm-------29.97-- 63.3----
2024-06-12 07:00 pm-------29.98-0.02- 63.3----
2024-06-12 06:54 pm-------29.98-- 63.3----
2024-06-12 06:48 pm-------29.98-- 63.3----
2024-06-12 06:42 pm-------29.99-- 63.5----
2024-06-12 06:36 pm-------29.98-- 63.3----
2024-06-12 06:30 pm-------29.98-- 63.3----
2024-06-12 06:24 pm-------29.99-- 63.5----
2024-06-12 06:18 pm-------29.99-- 63.5----
2024-06-12 06:12 pm-------29.98-- 63.5----
2024-06-12 06:06 pm-------29.98-- 63.5----
2024-06-12 06:00 pm-------29.98-0.03- 63.3----
2024-06-12 05:54 pm-------29.98-- 63.3----
2024-06-12 05:48 pm-------29.98-- 63.3----
2024-06-12 05:42 pm-------29.98-- 63.3----
2024-06-12 05:36 pm-------29.98-- 63.3----
2024-06-12 05:30 pm-------29.98-- 63.3----
2024-06-12 05:24 pm-------29.98-- 63.3----
2024-06-12 05:18 pm-------29.99-- 63.3----
2024-06-12 05:12 pm-------29.99-- 63.5----
2024-06-12 05:06 pm-------29.99-- 63.5----
2024-06-12 05:00 pm-------29.99-0.03- 63.5----
2024-06-12 04:54 pm-------29.99-- 63.5----
2024-06-12 04:48 pm-------29.99-- 63.5----
2024-06-12 04:42 pm-------29.99-- 63.5----
2024-06-12 04:36 pm-------29.99-- 63.5----
2024-06-12 04:30 pm-------30.00-- 63.5----
2024-06-12 04:24 pm-------30.00-- 63.5----
2024-06-12 04:18 pm-------30.00-- 63.5----
2024-06-12 04:12 pm-------30.00-- 63.5----
2024-06-12 04:06 pm-------30.00-- 63.5----
2024-06-12 04:00 pm-------30.01-0.04- 63.5----
2024-06-12 03:54 pm-------30.01-- 63.5----
2024-06-12 03:48 pm-------30.01-- 63.5----
2024-06-12 03:42 pm-------30.01-- 63.5----
2024-06-12 03:36 pm-------30.01-- 63.5----
2024-06-12 03:30 pm-------30.01-- 63.5----
2024-06-12 03:24 pm-------30.01-- 63.5----
2024-06-12 03:18 pm-------30.01-- 63.7----
2024-06-12 03:12 pm-------30.01-- 63.5----
2024-06-12 03:06 pm-------30.01-- 63.5----
2024-06-12 03:00 pm-------30.01-0.04- 63.5----
2024-06-12 02:54 pm-------30.01-- 63.5----
2024-06-12 02:48 pm-------30.01-- 63.5----
2024-06-12 02:42 pm-------30.01-- 63.5----
2024-06-12 02:36 pm-------30.02-- 63.5----
2024-06-12 02:30 pm-------30.02-- 63.5----
2024-06-12 02:24 pm-------30.02-- 63.5----
2024-06-12 02:18 pm-------30.02-- 63.5----
2024-06-12 02:12 pm-------30.02-- 63.5----
2024-06-12 02:06 pm-------30.02-- 63.5----
2024-06-12 02:00 pm-------30.02-0.03- 63.5----
2024-06-12 01:54 pm-------30.02-- 63.5----
2024-06-12 01:48 pm-------30.03-------
2024-06-12 01:42 pm-------30.03-------
2024-06-12 01:36 pm-------30.03-------
2024-06-12 01:30 pm-------30.03-- 63.5----
2024-06-12 01:24 pm-------30.03-- 63.5----
2024-06-12 01:18 pm-------30.04-- 63.3----
2024-06-12 01:12 pm-------30.04-- 63.3----
2024-06-12 01:06 pm-------30.04-- 63.3----
2024-06-12 01:00 pm-------30.04-0.01- 63.5----
2024-06-12 12:54 pm-------30.04-- 63.3----
2024-06-12 12:48 pm-------30.04-- 63.3----
2024-06-12 12:42 pm-------30.05-- 63.3----
2024-06-12 12:36 pm-------30.04-- 63.3----
2024-06-12 12:30 pm-------30.04-------
2024-06-12 12:24 pm-------30.05-------
2024-06-12 12:18 pm-------30.05-------
2024-06-12 12:12 pm-------30.05-------
2024-06-12 12:06 pm-------30.05-------
2024-06-12 12:00 pm-------30.05-0.01- 63.3----
2024-06-12 11:54 am-------30.05-- 63.3----
2024-06-12 11:48 am-------30.05-- 63.3----
2024-06-12 11:42 am-------30.05-- 63.3----
2024-06-12 11:36 am-------30.05-- 63.3----
2024-06-12 11:30 am-------30.05-- 63.3----
2024-06-12 11:24 am-------30.05-- 63.3----
2024-06-12 11:18 am-------30.05-- 63.3----
2024-06-12 11:12 am-------30.05-- 63.3----
2024-06-12 11:06 am-------30.05-- 63.3----
2024-06-12 11:00 am-------30.05+0.00- 63.3----
2024-06-12 10:54 am-------30.05-- 63.3----
2024-06-12 10:48 am-------30.05-- 63.3----
2024-06-12 10:42 am-------30.05-- 63.3----
2024-06-12 10:36 am-------30.05-- 63.3----
2024-06-12 10:30 am-------30.05-- 63.3----
2024-06-12 10:24 am-------30.05-- 63.3----
2024-06-12 10:18 am-------30.06-- 63.3----
2024-06-12 10:12 am-------30.06-- 63.3----
2024-06-12 10:06 am-------30.06-- 63.3----
2024-06-12 10:00 am-------30.06+0.01- 63.3----
2024-06-12 09:54 am-------30.06-- 63.3----
2024-06-12 09:48 am-------30.06-- 63.3----
2024-06-12 09:42 am-------30.06-- 63.3----
2024-06-12 09:36 am-------30.06-- 63.3----
2024-06-12 09:30 am-------30.06-- 63.3----
2024-06-12 09:24 am-------30.06-- 63.3----
2024-06-12 09:18 am-------30.06-- 63.3----
2024-06-12 09:12 am-------30.06-- 63.3----
2024-06-12 09:06 am-------30.06-- 63.3----
2024-06-12 09:00 am-------30.06+0.03- 63.3----
2024-06-12 08:54 am-------30.06-- 63.3----
2024-06-12 08:48 am-------30.06-- 63.3----
2024-06-12 08:42 am-------30.06-- 63.3----
2024-06-12 08:36 am-------30.06-- 63.3----
2024-06-12 08:30 am-------30.05-- 63.3----
2024-06-12 08:24 am-------30.06-- 63.3----
2024-06-12 08:18 am-------30.05-- 63.3----
2024-06-12 08:12 am-------30.05-- 63.3----
2024-06-12 08:06 am-------30.05-- 63.1----
2024-06-12 08:00 am-------30.04+0.01- 63.3----
2024-06-12 07:54 am-------30.04-- 63.3----
2024-06-12 07:48 am-------30.04-- 63.1----
2024-06-12 07:42 am-------30.04-- 63.1----
2024-06-12 07:36 am-------30.04-- 63.1----
2024-06-12 07:30 am-------30.04-- 63.3----
2024-06-12 07:24 am-------30.04-- 63.3----
2024-06-12 07:18 am-------30.04-- 63.1----
2024-06-12 07:12 am-------30.04-- 63.1----
2024-06-12 07:06 am-------30.04-- 63.3----
2024-06-12 07:00 am-------30.04+0.02- 63.1----
2024-06-12 06:54 am-------30.04-- 63.1----
2024-06-12 06:48 am-------30.03-- 63.1----
2024-06-12 06:42 am-------30.03-- 63.3----
2024-06-12 06:36 am-------30.03-- 63.1----
2024-06-12 06:30 am-------30.03-- 63.1----
2024-06-12 06:24 am-------30.03-- 63.3----
2024-06-12 06:18 am-------30.03-- 63.3----
2024-06-12 06:12 am-------30.03-- 63.3----
2024-06-12 06:06 am-------30.03-- 63.3----
2024-06-12 06:00 am-------30.03+0.00- 63.3----
2024-06-12 05:54 am-------30.03-- 63.1----
2024-06-12 05:48 am-------30.03-- 63.3----
2024-06-12 05:42 am-------30.03-- 63.3----
2024-06-12 05:36 am-------30.03-- 63.3----
2024-06-12 05:30 am-------30.03-- 63.3----
2024-06-12 05:24 am-------30.03-- 63.3----
2024-06-12 05:18 am-------30.03-- 63.3----
2024-06-12 05:12 am-------30.03-- 63.3----
2024-06-12 05:06 am-------30.03-- 63.3----
2024-06-12 05:00 am-------30.03+0.00- 63.3----
2024-06-12 04:54 am-------30.03-- 63.3----
2024-06-12 04:48 am-------30.03-- 63.3----
2024-06-12 04:42 am-------30.03-- 63.3----
2024-06-12 04:36 am-------30.03-- 63.3----
2024-06-12 04:30 am-------30.03-- 63.3----
2024-06-12 04:24 am-------30.03-- 63.3----
2024-06-12 04:18 am-------30.02-- 63.3----
2024-06-12 04:12 am-------30.02-- 63.3----
2024-06-12 04:06 am-------30.02-- 63.3----
2024-06-12 04:00 am-------30.02-0.01- 63.3----
2024-06-12 03:54 am-------30.02-- 63.3----
2024-06-12 03:48 am-------30.02-- 63.3----
2024-06-12 03:42 am-------30.02-- 63.3----
2024-06-12 03:36 am-------30.02-- 63.3----
2024-06-12 03:30 am-------30.02-- 63.3----
2024-06-12 03:24 am-------30.02-- 63.3----
2024-06-12 03:18 am-------30.02-- 63.3----
2024-06-12 03:12 am-------30.02-- 63.3----
2024-06-12 03:06 am-------30.02-- 63.3----
2024-06-12 03:00 am-------30.03+0.00- 63.3----
2024-06-12 02:54 am-------30.03-- 63.3----
2024-06-12 02:48 am-------30.03-- 63.3----
2024-06-12 02:42 am-------30.03-- 63.3----
2024-06-12 02:36 am-------30.03-- 63.3----
2024-06-12 02:30 am-------30.03-- 63.3----
2024-06-12 02:24 am-------30.03-- 63.3----
2024-06-12 02:18 am-------30.03-- 63.3----
2024-06-12 02:12 am-------30.03-- 63.3----
2024-06-12 02:06 am-------30.03-- 63.3----
2024-06-12 02:00 am-------30.03+0.00- 63.3----
2024-06-12 01:54 am-------30.03-- 63.3----
2024-06-12 01:48 am-------30.03-- 63.3----
2024-06-12 01:42 am-------30.03-- 63.3----
2024-06-12 01:36 am-------30.03-- 63.3----
2024-06-12 01:30 am-------30.03-- 63.3----
2024-06-12 01:24 am-------30.03-- 63.3----
2024-06-12 01:18 am-------30.03-- 63.3----
2024-06-12 01:12 am-------30.03-- 63.3----
2024-06-12 01:06 am-------30.03-- 63.3----
2024-06-12 01:00 am-------30.03+0.00- 63.3----
2024-06-12 12:54 am-------30.03-- 63.3----
2024-06-12 12:48 am-------30.03-- 63.3----
2024-06-12 12:42 am-------30.03-- 63.3----
2024-06-12 12:36 am-------30.03-- 63.3----
2024-06-12 12:30 am-------30.03-- 63.3----
2024-06-12 12:24 am-------30.03-- 63.3----
2024-06-12 12:18 am-------30.03-- 63.3----
2024-06-12 12:12 am-------30.03-- 63.3----
2024-06-12 12:06 am-------30.03-- 63.3----
2024-06-12 12:00 am-------30.03+0.02- 63.3----
2024-06-11 11:54 pm-------30.03-- 63.3----
2024-06-11 11:48 pm-------30.03-- 63.5----
2024-06-11 11:42 pm-------30.03-- 63.5----
2024-06-11 11:36 pm-------30.03-- 63.5----
2024-06-11 11:30 pm-------30.03-- 63.5----
2024-06-11 11:24 pm-------30.03-- 63.5----
2024-06-11 11:18 pm-------30.03-- 63.5----
2024-06-11 11:12 pm-------30.03-- 63.5----
2024-06-11 11:06 pm-------30.03-- 63.5----
2024-06-11 11:00 pm-------30.03+0.03- 63.5----
2024-06-11 10:54 pm-------30.03-- 63.5----